TimeMDT,TemperatureF,Dew PointF,Humidity,Sea Level PressureIn,VisibilityMPH,Wind Direction,Wind SpeedMPH,Gust SpeedMPH,PrecipitationIn,Events,Conditions,WindDirDegrees,DateUTC
12:53 AM,28.9,28.0,96,30.04,10.0,WSW,3.5,-,N/A,,Clear,250,2013-04-13 06:53:00
1:34 AM,28.4,26.6,93,30.01,4.0,WSW,3.5,-,N/A,,Partly Cloudy,250,2013-04-13 07:34:00
1:53 AM,27.0,26.1,96,30.01,10.0,WSW,4.6,-,N/A,,Partly Cloudy,250,2013-04-13 07:53:00
2:53 AM,28.0,26.1,92,29.99,10.0,WSW,5.8,-,N/A,,Clear,250,2013-04-13 08:53:00
3:53 AM,30.9,28.9,92,29.95,10.0,SW,6.9,-,N/A,,Mostly Cloudy,220,2013-04-13 09:53:00
4:53 AM,30.9,28.0,89,29.95,10.0,SW,8.1,-,N/A,,Clear,220,2013-04-13 10:53:00
5:53 AM,28.0,27.0,96,29.96,10.0,WSW,4.6,-,N/A,,Clear,240,2013-04-13 11:53:00
6:53 AM,30.0,28.9,96,29.94,10.0,SW,6.9,-,N/A,,Clear,220,2013-04-13 12:53:00
7:53 AM,34.0,30.9,89,29.92,10.0,SSW,10.4,-,N/A,,Clear,200,2013-04-13 13:53:00
8:53 AM,37.0,33.1,86,29.88,8.0,SSW,21.9,-,N/A,,Mostly Cloudy,200,2013-04-13 14:53:00
9:08 AM,37.4,33.8,87,29.83,6.0,South,21.9,27.6,N/A,,Overcast,190,2013-04-13 15:08:00
9:53 AM,41.0,37.0,86,29.82,10.0,SSW,20.7,28.8,N/A,,Overcast,200,2013-04-13 15:53:00
10:40 AM,46.4,41.0,81,29.76,10.0,South,26.5,34.5,N/A,,Mostly Cloudy,180,2013-04-13 16:40:00
10:53 AM,50.0,41.0,71,29.75,10.0,South,26.5,32.2,N/A,,Scattered Clouds,180,2013-04-13 16:53:00
11:53 AM,54.0,39.9,59,29.70,10.0,South,21.9,34.5,N/A,,Clear,190,2013-04-13 17:53:00
12:51 PM,59.0,37.4,45,29.64,4.0,South,27.6,38.0,N/A,,Haze,190,2013-04-13 18:51:00
12:53 PM,57.9,37.9,47,29.63,4.0,SSW,27.6,38.0,N/A,,Haze,200,2013-04-13 18:53:00
1:53 PM,64.0,37.9,38,29.58,5.0,South,21.9,34.5,N/A,,Haze,190,2013-04-13 19:53:00
2:53 PM,70.0,35.1,28,29.51,10.0,South,23.0,39.1,N/A,,Clear,190,2013-04-13 20:53:00
3:08 PM,69.8,35.6,28,29.53,10.0,SSW,19.6,32.2,N/A,,Partly Cloudy,200,2013-04-13 21:08:00
3:53 PM,71.1,33.1,25,29.44,10.0,South,26.5,35.7,N/A,,Partly Cloudy,180,2013-04-13 21:53:00
4:53 PM,73.0,16.0,11,29.40,10.0,SW,17.3,25.3,N/A,,Clear,220,2013-04-13 22:53:00
5:53 PM,69.1,33.1,26,29.38,10.0,South,17.3,-,N/A,,Clear,170,2013-04-13 23:53:00
6:53 PM,63.0,36.0,37,29.37,10.0,SE,10.4,-,N/A,,Clear,130,2013-04-14 00:53:00
7:53 PM,62.1,36.0,38,29.34,10.0,East,16.1,20.7,N/A,,Clear,90,2013-04-14 01:53:00
8:53 PM,55.9,37.9,51,29.33,10.0,Calm,Calm,-,N/A,,Clear,0,2013-04-14 02:53:00
9:53 PM,55.9,37.0,49,29.32,10.0,Calm,Calm,-,N/A,,Partly Cloudy,0,2013-04-14 03:53:00
10:53 PM,60.1,27.0,28,29.26,10.0,South,13.8,-,N/A,,Partly Cloudy,180,2013-04-14 04:53:00
11:53 PM,59.0,26.1,28,29.22,10.0,South,18.4,-,N/A,,Clear,190,2013-04-14 05:53:00